Theta_e
298 290 289 292 293 294 292 289 287 288 294 291 289 290 294 296 295 293 294 294 294 294 295 297 296 296 294 294 294 294 293 293 292 291 290 290 289 290 290 291 291 290 290 290
297 290 296 297 297 295 293 290 288 291 294 291 289 289 294 295 296 296 295 294 293 294 295 296 295 294 293 293 293 293 293 292 291 290 289 289 288 289 289 289 289 289 289 289
297 298 302 298 296 294 292 289 288 289 291 290 288 286 289 295 296 297 297 296 295 294 294 296 295 293 292 292 292 293 291 291 291 290 289 288 287 287 287 286 286 287 288 288
299 302 299 296 295 295 289 294 293 291 287 282 289 280 286 291 294 295 296 294 294 294 296 296 293 291 291 291 292 292 291 290 291 289 287 285 283 282 284 285 286 286 287 287
295 296 296 295 296 297 293 298 295 292 288 285 286 283 285 291 290 293 294 294 294 295 295 294 292 291 291 292 291 290 289 290 289 287 286 284 283 283 283 283 283 284 285 286
298 304 301 299 301 299 299 294 292 290 287 281 286 286 287 287 292 293 294 294 294 293 293 293 292 292 290 290 289 288 288 288 288 286 285 283 282 282 282 282 282 283 284 285
300 301 305 306 297 296 293 289 281 280 279 280 288 287 288 290 293 295 294 293 293 293 292 291 290 290 289 287 286 286 287 286 287 285 284 283 282 282 283 281 282 281 283 284
293 290 300 304 300 293 290 289 283 279 278 280 288 282 285 291 295 297 296 294 293 292 292 291 291 290 288 286 284 285 286 285 285 284 282 282 282 282 282 282 282 281 284 284
292 291 299 304 305 298 291 286 292 286 286 280 282 284 290 292 293 294 293 293 291 292 291 291 290 288 286 284 283 283 284 284 284 283 281 280 281 281 280 281 281 281 284 284
296 289 297 296 298 298 296 294 286 286 278 277 280 282 283 288 290 293 292 291 292 291 290 290 289 287 286 284 283 283 283 282 282 281 281 280 280 280 280 280 279 280 281 281
296 293 292 295 291 290 291 289 290 289 284 279 276 280 291 290 293 293 293 294 293 292 290 289 288 286 285 283 283 281 281 280 280 280 280 279 279 279 279 279 279 279 280 280
295 293 288 291 296 295 294 292 291 283 281 284 281 278 292 292 293 294 295 297 295 293 290 288 284 283 281 279 278 278 280 279 280 280 279 279 278 278 278 278 278 279 278 279
292 288 283 284 287 289 288 289 291 291 286 282 275 276 293 293 293 295 294 293 294 290 286 284 282 279 276 278 277 276 275 274 277 279 278 277 275 276 274 276 277 278 277 277
296 290 285 281 284 286 284 288 290 289 283 280 279 279 288 292 292 294 294 293 291 289 287 284 282 280 279 279 275 273 275 273 273 274 274 273 271 271 272 275 277 278 277 277
292 283 286 289 291 291 288 287 288 285 286 283 283 284 287 291 293 293 294 293 291 288 286 285 283 281 280 278 278 277 276 271 269 271 271 268 270 274 277 277 278 277 276 276
292 284 285 281 289 289 286 288 288 286 288 286 286 285 291 293 294 291 292 293 291 289 288 287 285 282 281 280 279 279 278 274 274 269 267 269 271 271 274 275 276 276 276 274
287 284 283 281 287 286 281 283 285 286 288 288 283 288 291 291 293 291 291 293 292 291 290 288 285 284 283 281 280 278 277 277 276 271 265 268 268 267 269 276 275 273 270 272
284 284 282 281 283 276 285 291 290 288 289 290 290 289 291 291 290 291 291 291 291 291 289 288 286 284 284 283 281 279 278 277 276 276 274 269 269 268 267 269 269 268 269 268
290 286 282 280 279 282 285 289 288 286 286 291 289 291 291 290 289 287 291 291 290 289 288 287 286 284 283 282 281 280 278 277 277 277 277 278 274 270 269 270 270 269 268 267
291 288 284 281 277 274 282 289 293 292 281 291 291 289 289 288 279 281 289 289 286 282 283 283 283 282 281 280 281 279 278 278 277 278 278 279 279 279 276 273 271 272 272 270
284 284 281 281 280 281 288 291 293 280 281 290 291 289 288 284 285 287 287 284 282 277 279 280 280 280 278 279 279 276 275 275 275 279 279 280 280 279 279 278 279 278 277 276
284 282 281 282 279 277 292 291 285 286 288 289 289 288 285 287 283 282 280 280 281 278 276 274 276 275 271 277 277 275 275 272 274 275 275 275 275 279 279 278 278 280 278 276
280 285 282 284 282 290 292 290 291 292 289 289 290 288 287 284 285 283 281 281 280 277 275 273 275 272 267 272 277 275 273 273 273 273 273 271 273 274 272 273 272 275 276 275
287 291 285 285 286 289 292 293 294 294 292 293 293 290 288 286 284 286 281 281 280 278 277 276 274 273 271 270 276 276 274 274 274 272 272 271 275 272 270 272 273 272 270 271
285 287 283 282 285 289 291 293 294 294 294 294 294 291 290 287 285 285 282 282 281 279 278 277 276 276 275 275 273 274 274 275 275 275 275 277 277 273 271 270 271 272 267 272
286 285 282 281 288 289 289 293 294 293 293 294 294 293 291 289 286 286 284 284 282 280 279 278 278 277 276 275 274 275 276 276 276 276 277 277 275 274 273 272 272 277 277 276
Wind_Speed
4 4 12 12 9 4 3 5 8 5 4 4 7 7 16 16 10 12 15 15 14 13 10 8 9 8 8 7 7 6 6 5 5 4 4 4 4 5 5 6 8 10 9 10
4 11 13 9 8 7 7 12 10 5 4 2 7 9 15 16 19 23 21 17 16 11 10 9 9 6 6 7 6 7 7 6 5 3 3 3 2 3 3 5 8 10 12 12
16 9 13 14 13 11 11 7 5 5 5 5 5 5 6 10 11 9 13 16 17 20 16 13 10 8 8 7 7 7 6 6 6 6 3 2 2 2 4 7 7 9 10 10
12 15 17 13 15 9 9 6 6 3 3 5 7 7 6 7 19 16 18 18 18 15 12 12 10 7 8 6 6 8 6 6 7 6 7 7 4 4 4 6 7 7 9 11
8 6 12 16 15 11 10 7 5 4 2 2 3 3 7 6 9 15 18 20 16 16 15 14 11 9 7 7 7 7 7 7 7 7 6 5 5 3 3 3 6 7 8 10
9 7 3 6 4 10 6 5 6 4 3 6 6 6 15 7 9 7 11 18 17 14 11 11 8 10 7 6 8 7 7 6 7 8 7 8 7 5 5 5 5 6 7 7
13 19 19 13 9 3 2 7 0 3 1 9 8 8 16 6 7 14 21 19 16 14 14 13 13 9 8 8 8 7 7 6 7 8 7 7 6 5 6 5 5 7 7 8
11 9 17 10 17 8 8 9 7 8 5 4 4 7 6 6 10 13 16 18 15 14 13 13 13 11 9 9 7 7 7 7 7 7 7 6 5 4 3 4 4 4 6 8
4 5 6 13 23 12 3 6 8 7 2 3 5 1 3 6 11 13 14 15 14 14 13 12 13 11 10 8 7 8 8 7 7 7 5 5 5 6 5 5 5 4 7 8
6 9 3 6 2 12 19 6 2 5 6 7 5 6 5 4 8 11 13 14 13 10 9 10 12 11 8 8 7 7 7 8 6 6 4 5 5 5 5 5 5 7 7 9
11 6 3 5 2 6 3 5 3 4 4 4 1 6 5 10 11 14 13 14 14 14 13 12 10 10 9 7 6 6 6 7 6 5 5 6 5 5 5 4 5 6 6 8
10 7 12 18 12 6 9 14 9 5 6 10 3 7 2 10 10 11 13 15 10 13 11 11 10 10 8 6 6 5 5 6 5 5 5 5 4 4 4 3 5 6 6 7
1 4 3 2 2 3 6 4 7 14 1 4 6 7 2 5 8 11 11 6 10 13 12 10 10 9 8 7 6 6 5 5 4 5 5 4 4 5 3 3 4 6 6 6
5 6 6 5 3 5 5 5 6 8 5 5 7 5 4 6 9 6 7 10 11 13 15 12 9 9 8 7 7 6 5 4 4 5 4 5 3 3 2 3 3 7 7 7
5 3 6 9 15 17 4 4 9 7 6 8 8 10 8 9 10 9 8 8 11 13 14 14 12 10 9 9 8 7 6 4 4 5 5 3 2 2 3 4 5 7 8 7
1 5 4 4 8 6 5 12 3 1 2 3 6 8 8 8 5 9 11 12 13 14 14 14 12 12 12 11 10 10 8 6 6 5 4 2 3 3 3 3 6 6 7 6
3 6 6 8 15 2 6 7 5 4 5 6 7 8 6 7 8 7 11 13 14 14 15 15 14 13 12 12 12 10 10 8 7 6 3 3 2 3 2 4 6 5 3 4
6 5 3 3 4 8 11 6 7 10 11 9 11 4 6 5 4 4 4 10 9 10 12 11 12 12 11 11 11 11 11 9 8 7 6 4 3 3 2 4 4 2 2 3
2 6 2 3 5 6 8 6 7 9 22 11 9 7 4 7 5 5 3 3 7 9 10 11 12 12 11 13 13 13 11 10 9 8 8 7 5 4 3 4 5 2 3 2
5 3 7 4 5 7 6 8 6 5 15 9 11 8 12 7 4 6 5 2 4 4 7 12 12 12 13 12 13 13 12 10 9 9 8 7 6 6 5 4 4 4 3 2
10 5 13 8 5 7 7 7 4 10 9 7 8 8 10 7 5 5 8 3 3 3 8 9 11 12 12 12 12 10 10 10 7 9 8 7 6 5 5 4 3 6 6 5
11 8 5 5 6 9 6 3 8 8 1 4 6 6 6 6 5 5 5 6 7 9 6 5 10 8 5 10 12 11 11 7 7 7 6 5 3 2 2 3 1 5 8 6
2 7 7 8 7 6 5 4 1 5 5 4 7 5 10 10 7 8 7 8 6 7 7 3 10 9 2 5 12 13 9 9 8 7 6 4 4 4 3 5 3 5 5 4
3 4 5 4 4 5 6 0 3 4 6 7 6 8 8 9 9 10 8 8 8 8 9 7 9 9 7 3 6 9 11 9 10 8 6 4 7 5 4 4 3 4 4 4
7 5 5 3 4 1 3 6 6 6 8 7 6 9 10 8 9 10 9 10 9 10 9 10 10 9 9 7 6 8 10 10 10 8 6 7 6 6 5 3 3 3 0 5
3 5 5 5 7 5 6 7 7 8 7 8 9 5 4 8 11 9 9 10 11 11 10 9 9 9 9 9 9 9 10 10 10 10 7 6 6 5 6 6 5 11 12 14
Wind_Direction
186 148 223 224 217 213 246 299 277 261 237 115 183 159 180 186 170 167 173 162 154 157 167 153 140 134 121 105 102 90 87 53 54 26 10 22 20 28 27 19 16 6 4 359
212 221 223 227 237 241 250 249 271 280 261 125 180 209 199 186 198 190 173 164 161 156 158 157 146 129 117 118 104 82 81 66 57 59 41 40 1 26 23 7 6 5 2 354
217 228 220 227 245 236 242 195 225 192 312 352 99 289 174 223 221 189 182 169 168 164 162 163 149 146 133 119 116 102 105 85 67 67 61 23 20 11 12 10 3 356 352 346
239 233 244 241 236 198 227 211 219 274 125 226 165 262 272 223 207 189 178 174 173 165 160 156 145 141 137 134 122 103 99 89 79 71 64 57 51 26 2 357 342 343 350 344
214 221 215 231 239 197 218 207 199 184 222 116 254 265 238 230 207 201 180 176 171 166 161 156 149 141 140 138 112 112 103 80 78 75 80 78 57 45 4 332 345 344 354 344
227 271 209 212 223 235 183 99 46 63 108 261 193 176 271 206 221 163 170 169 163 152 145 136 130 130 132 123 100 115 103 88 87 82 70 68 60 28 13 359 355 353 351 337
247 245 266 263 279 192 112 117 34 314 192 236 197 222 250 295 265 174 168 163 153 147 143 143 139 141 139 126 122 131 106 84 86 80 73 64 53 34 25 351 359 354 344 353
215 242 215 218 216 194 187 164 166 201 202 247 222 232 254 309 278 166 149 137 141 149 150 160 147 153 150 135 131 111 103 88 86 83 71 57 39 33 21 341 354 347 348 352
164 262 307 212 217 190 223 194 179 143 348 57 233 209 308 28 71 107 126 137 149 157 169 163 152 152 149 131 127 120 107 95 88 88 81 67 50 41 15 339 350 345 344 2
226 260 264 302 88 215 208 175 123 79 208 220 234 199 210 188 127 130 144 162 168 160 157 152 154 150 130 125 123 104 101 100 103 98 86 68 50 33 1 5 356 14 5 6
205 158 220 23 220 187 177 142 128 159 175 179 199 257 212 173 158 159 170 177 175 173 171 161 146 133 126 118 116 116 108 111 102 93 81 72 49 22 13 22 8 16 28 10
203 182 227 232 225 284 229 212 155 149 196 227 182 260 185 172 174 165 180 194 176 174 164 152 137 131 131 129 121 132 120 101 97 96 91 76 45 24 19 10 28 30 21 17
238 52 305 65 300 266 194 184 143 194 97 210 145 263 186 158 185 196 185 144 158 156 148 144 142 148 150 148 139 121 112 114 113 111 101 72 43 41 8 13 35 41 20 13
100 143 172 242 236 173 181 183 170 153 175 198 213 220 225 195 191 192 200 178 171 171 162 157 158 162 157 147 141 135 136 134 126 111 106 85 47 42 35 11 43 53 41 17
118 149 157 226 274 271 294 248 189 171 178 185 220 212 190 207 208 189 211 142 151 165 170 177 172 167 161 153 151 156 145 137 130 120 108 93 21 55 66 50 59 62 50 27
99 180 102 278 222 265 200 217 175 129 155 208 172 253 182 224 202 167 173 166 176 183 184 180 172 167 168 167 163 161 153 147 138 133 123 114 82 77 83 77 73 64 58 33
119 133 148 239 249 120 316 194 176 198 205 167 202 221 172 215 215 190 185 184 178 181 181 179 175 169 170 171 163 161 153 146 148 136 135 131 128 109 118 111 87 70 45 38
126 105 102 252 143 206 239 163 186 210 235 226 248 204 196 210 98 95 150 163 175 172 170 171 167 165 163 158 156 145 148 153 150 144 152 167 154 144 134 116 114 80 38 51
175 111 134 209 216 303 275 184 181 181 252 225 227 238 133 115 72 358 4 125 179 175 173 169 161 154 151 156 152 148 153 154 150 157 166 168 165 154 142 129 149 158 86 37
169 113 186 168 217 213 255 233 193 110 266 197 191 182 148 149 115 241 197 146 124 126 142 145 146 147 146 156 150 153 159 158 165 169 170 170 172 167 163 173 167 151 156 141
183 179 208 212 229 277 245 262 95 161 247 207 166 155 152 164 183 158 132 119 109 140 136 128 140 153 154 149 148 147 149 163 157 161 165 172 177 174 182 195 191 146 152 142
174 167 186 186 216 253 223 329 206 222 279 143 123 127 117 118 113 123 136 150 145 135 118 116 129 137 140 146 142 148 153 151 135 128 131 139 145 159 156 132 75 142 150 141
161 182 173 184 205 224 275 210 348 168 153 149 113 133 143 139 166 169 163 157 152 145 130 94 137 132 86 135 152 149 158 148 136 130 139 135 108 94 79 106 76 93 106 116
291 176 174 109 237 216 208 18 125 110 122 131 132 144 165 158 166 172 160 162 159 154 153 142 139 151 155 151 147 151 154 147 141 142 148 131 123 105 80 77 71 107 110 103
202 144 179 251 290 266 235 168 166 139 117 108 132 158 180 152 178 169 173 173 172 164 154 159 164 166 165 154 139 148 150 148 150 153 156 149 137 127 109 92 114 108 219 129
201 176 150 220 220 194 218 201 193 172 187 178 161 135 172 175 172 161 175 174 167 167 159 163 168 164 160 156 152 155 158 157 160 168 171 152 144 140 133 128 117 113 119 122